Dewpoint
54 54 54 53 53 53 53 53 53 53 52 53 53 53 54 52 50 56 59 63 65 65 64 64 64 64 63 63 65 65 65 65 65
53 53 53 53 53 53 51 51 50 50 51 53 52 54 52 48 49 54 57 61 63 63 63 62 61 61 62 63 64 65 65 65 65
52 52 52 50 50 50 49 48 46 46 47 47 47 52 53 49 53 53 54 57 57 59 60 60 59 59 61 63 64 64 65 65 65
51 50 49 47 46 45 46 46 44 43 44 44 44 48 51 50 52 52 54 56 53 53 54 56 56 57 60 61 61 62 63 64 64
50 48 45 43 42 42 43 42 42 41 42 43 43 43 47 49 53 54 56 54 52 53 52 55 58 61 60 60 59 59 61 62 62
41 44 42 41 41 42 42 41 41 39 37 40 40 38 44 52 53 55 56 53 56 57 56 55 55 56 57 57 58 60 59 60 59
35 37 38 39 38 39 40 40 37 34 33 31 33 36 41 51 53 55 54 53 54 54 54 51 53 54 53 56 57 56 56 56 55
32 30 30 32 33 32 32 32 32 33 33 32 30 34 44 50 52 54 54 52 52 52 52 54 52 52 58 54 55 54 53 52 53
32 30 30 31 32 32 32 32 32 32 32 32 31 30 38 49 51 52 54 51 51 54 52 52 54 55 55 56 55 54 53 52 53
32 31 31 31 33 33 32 32 33 33 33 33 32 32 31 41 51 51 53 51 49 51 50 50 51 51 52 53 52 52 52 52 51
33 32 32 33 33 34 33 33 34 35 34 34 34 33 33 33 48 51 51 51 49 48 48 49 49 49 50 51 51 50 50 48 49
34 34 34 34 35 35 36 36 36 36 35 35 35 34 33 33 43 50 51 49 48 48 46 45 44 43 44 44 45 46 47 47 47
37 37 37 35 36 37 37 37 36 37 36 36 36 35 36 34 39 49 50 49 46 46 47 46 44 43 43 42 42 42 42 44 44
38 39 40 39 38 38 38 38 37 36 36 36 36 36 37 35 45 47 48 49 47 46 45 45 43 43 44 45 44 43 43 43 43
39 40 41 41 41 40 40 38 38 36 36 36 35 36 38 40 45 44 46 47 46 46 45 43 40 41 42 43 44 44 43 43 44
41 42 42 42 41 41 40 39 38 37 38 38 35 34 34 33 33 36 39 43 38 38 38 37 37 37 39 40 42 44 45 43 43
44 43 43 43 43 42 41 40 39 38 38 36 35 32 31 32 33 37 34 35 37 37 36 37 36 37 37 38 40 41 43 43 43
45 44 44 44 43 43 42 41 39 39 39 36 34 31 30 33 34 34 34 35 37 35 36 37 37 37 36 37 39 41 42 43 44
46 45 44 44 44 43 43 42 41 40 39 39 38 37 36 34 29 34 35 36 33 34 36 35 37 37 36 37 41 40 40 41 43
45 45 44 44 44 43 43 42 42 41 40 40 39 38 37 36 35 28 32 32 32 33 34 34 36 36 36 37 38 39 38 39 40
Wind_Speed
11 11 11 12 12 12 12 12 12 11 11 9 10 11 11 8 7 6 8 9 9 10 9 9 8 9 9 7 6 5 4 6 6
12 12 11 11 11 12 12 11 13 12 13 11 11 11 10 7 6 6 8 10 10 9 9 8 8 8 9 10 10 9 6 5 7
11 11 11 12 12 12 12 12 12 12 12 12 12 11 10 7 6 7 7 11 8 8 8 8 7 6 6 7 9 10 8 6 5
10 10 11 11 11 11 11 11 11 12 12 12 11 11 10 6 6 6 7 11 9 8 7 8 9 8 4 4 7 7 8 8 8
11 10 11 11 11 11 11 11 11 11 11 12 11 10 7 6 5 5 7 10 9 9 8 7 8 7 7 6 5 6 5 7 9
8 10 11 11 11 11 11 11 11 11 10 11 11 8 6 5 5 5 9 8 8 6 7 8 9 10 9 8 6 5 7 7 8
7 8 10 10 11 11 11 11 10 9 7 7 8 6 5 3 3 4 8 8 7 7 7 7 9 9 7 5 3 6 7 9 9
5 5 6 6 8 7 7 8 8 8 7 7 7 6 5 3 3 5 8 8 7 5 4 4 5 6 13 3 3 4 4 8 10
5 5 5 5 5 6 7 7 7 8 8 7 7 6 5 3 2 3 8 8 7 6 6 5 6 8 9 9 10 9 10 10 12
4 4 4 4 4 6 7 7 7 8 8 7 7 7 6 4 2 2 6 7 7 6 6 7 9 10 9 9 9 9 10 11 10
3 3 3 5 5 5 5 6 7 7 8 8 8 6 5 4 3 2 2 6 7 7 6 7 6 7 9 9 9 8 8 8 10
3 3 3 4 4 5 6 6 5 5 6 8 7 5 4 3 2 2 1 2 5 7 7 7 7 7 6 6 6 6 6 7 9
3 3 3 3 4 5 5 6 7 7 8 10 7 7 3 3 3 3 2 0 2 4 8 8 9 9 8 6 6 5 6 6 7
2 2 3 3 3 4 6 5 6 8 11 11 7 6 5 2 2 1 0 0 1 2 5 7 8 10 10 9 8 8 8 8 8
2 1 1 2 4 5 6 5 6 3 9 8 6 5 5 3 4 2 1 1 2 2 2 3 4 7 10 12 12 11 10 9 8
2 1 1 3 4 3 4 3 5 4 10 6 4 2 1 7 5 4 2 4 5 5 4 3 4 5 6 9 11 12 12 11 10
3 2 1 1 1 3 4 4 3 3 8 6 3 5 2 2 5 3 5 6 5 9 6 7 7 5 6 5 7 8 11 12 12
3 3 3 2 1 2 2 2 3 4 3 6 3 3 3 8 2 2 2 6 8 12 9 7 10 9 8 7 5 5 5 8 11
4 4 4 3 2 1 1 1 1 1 2 1 3 1 1 3 7 2 3 4 13 9 9 10 8 5 3 6 10 14 12 9 9
4 5 5 4 2 2 1 1 1 1 1 1 2 1 0 2 5 10 7 13 8 10 10 10 6 4 2 2 8 14 16 16 14
Wind_Direction
56 54 52 48 46 39 35 32 29 22 18 23 20 9 0 358 2 11 11 17 42 60 60 54 39 32 18 359 330 327 316 274 258
60 55 49 42 37 31 29 27 26 22 20 26 19 20 14 10 8 8 13 24 40 48 48 46 36 22 15 16 11 11 358 309 283
53 46 42 40 39 34 30 27 24 23 23 24 22 22 23 35 33 12 7 4 15 21 18 12 14 11 12 14 21 25 17 6 348
48 42 44 39 35 33 29 24 22 23 21 22 20 21 22 24 28 20 7 351 350 351 355 354 345 340 7 23 3 7 15 17 25
55 46 42 38 35 33 31 25 23 24 22 20 21 17 18 20 15 17 7 356 346 356 358 3 6 9 360 4 10 354 32 35 26
54 48 45 42 38 35 33 29 27 23 22 21 19 21 18 17 20 17 6 2 6 36 33 7 356 342 349 340 351 40 26 31 24
64 50 45 43 37 34 32 30 28 25 17 9 13 19 7 19 18 22 10 7 3 357 24 2 352 346 335 338 5 22 21 17 4
62 53 40 36 29 31 24 22 26 21 14 10 9 2 4 6 13 17 16 13 5 0 340 30 345 338 358 291 347 12 19 9 348
70 58 45 39 26 25 22 18 14 16 10 5 2 354 351 348 351 7 11 18 13 5 354 3 17 7 17 37 37 30 17 25 343
83 66 53 42 25 22 16 11 9 7 2 3 350 342 333 327 311 334 6 21 22 22 16 10 3 355 4 12 17 17 14 15 342
96 77 50 36 22 16 7 4 0 1 357 351 343 330 316 299 287 289 352 21 23 22 29 30 21 4 357 3 12 6 354 334 333
99 68 44 31 12 9 6 4 357 352 346 339 340 336 325 280 266 240 278 2 16 15 18 16 12 1 354 353 347 340 340 331 328
96 65 42 19 16 9 1 356 348 352 350 339 341 334 331 244 217 197 197 138 16 9 14 8 8 3 354 345 338 331 325 318 322
118 66 42 22 14 8 359 355 1 349 347 338 343 357 4 56 58 95 173 158 29 20 10 11 8 357 348 340 331 327 325 317 311
131 88 50 23 10 12 8 1 353 351 342 329 352 18 43 72 64 40 52 47 29 32 30 359 354 352 341 331 323 318 317 315 307
169 150 70 37 28 11 7 352 356 357 349 334 3 23 48 48 46 16 81 86 67 58 42 6 334 330 344 334 326 311 301 304 309
193 158 108 86 48 26 23 24 359 358 15 1 336 354 326 11 32 53 57 65 26 8 354 336 331 326 314 315 319 323 312 302 298
177 168 153 123 89 40 29 33 30 10 22 40 31 342 335 331 348 4 336 358 346 338 336 336 337 337 331 332 346 356 334 306 295
169 166 160 146 143 124 59 70 68 57 9 17 44 64 311 327 318 325 292 321 322 328 325 321 327 345 354 1 2 4 354 344 323
170 169 163 160 133 107 94 95 63 39 17 12 350 338 237 219 248 301 307 316 313 312 316 312 320 349 15 12 350 347 340 334 325